• Join FlightAware (Why Join?)
  • Login
  • US Flag 
04:04AM EDT


 

Airport Tracker/Info


-or-


 

Live Flight TrackerFlight Track Log ✈ SWA378 ✈ 29-Aug-2013 ✈ KBWI - KLAS

Flight Track Log - Related Links

Times and Time Zones

All times are in EDT time to prevent confusion due to time zone crossing. See the SWA378 flight status page for this flight to view local times or setup timezone preferences in your user account.

Time Position Orientation Groundspeed Altitude Reporting Facility
EDT Latitude Longitude Course Direction KTS MPH feet Rate Location/Type
07:30AM 39.1870 -76.8020 286° West 260 299 3,300  Level FlightAware
07:30AM 39.1930 -76.8320 284° West 280 322 4,000 2,460 Climbing FlightAware
07:30AM 39.2010 -76.8670 286° West 291 335 4,900 3,360 Climbing FlightAware
07:31AM 39.2080 -76.9050 283° West 291 335 6,300 3,420 Climbing FlightAware
07:31AM 39.2150 -76.9470 282° West 296 341 7,500 3,120 Climbing FlightAware
07:31AM 39.2150 -76.9960 270° West 303 349 8,900 3,000 Climbing FlightAware
07:32AM 39.2140 -77.0540 269° West 301 346 10,600 2,580 Climbing FlightAware
07:33AM 39.2110 -77.1240 267° West 317 365 12,000 1,980 Climbing FlightAware
07:33AM 39.1980 -77.1610 246° West 341 392 12,600 1,860 Climbing FlightAware
07:33AM 39.1840 -77.1800 226° Southwest 354 407 13,000 1,620 Climbing FlightAware
07:34AM 39.1340 -77.2230 214° Southwest 378 435 13,900 1,620 Climbing FlightAware
07:34AM 39.0910 -77.2600 214° Southwest 395 455 14,800 2,100 Climbing FlightAware
07:35AM 39.0320 -77.3100 213° Southwest 399 459 16,300 2,280 Climbing FlightAware
07:35AM 39.0120 -77.3360 225° Southwest 401 461 16,800 1,680 Climbing FlightAware
07:35AM 38.9980 -77.3710 243° Southwest 400 460 17,200 1,560 Climbing FlightAware
07:36AM 38.9860 -77.4380 257° West 403 464 18,100 1,920 Climbing FlightAware
07:37AM 38.9690 -77.5310 257° West 411 473 19,400 2,040 Climbing FlightAware
07:37AM 38.9540 -77.6140 257° West 415 478 20,600 1,920 Climbing FlightAware
07:38AM 38.9380 -77.7040 257° West 422 486 21,700 1,800 Climbing FlightAware
07:38AM 38.9240 -77.7890 258° West 425 489 22,700 1,620 Climbing FlightAware
07:39AM 38.9110 -77.8680 258° West 431 496 23,600 1,500 Climbing FlightAware
07:39AM 38.8950 -77.9640 258° West 439 505 24,500 1,320 Climbing FlightAware
07:40AM 38.8800 -78.0580 258° West 448 516 25,200 1,320 Climbing FlightAware
07:41AM 38.8620 -78.1590 257° West 452 520 26,100 1,560 Climbing FlightAware
07:41AM 38.8540 -78.2510 264° West 443 510 27,000 1,560 Climbing FlightAware
07:42AM 38.8530 -78.3500 269° West 442 509 28,000 1,320 Climbing FlightAware
07:42AM 38.8520 -78.4280 269° West 442 509 28,600 1,320 Climbing FlightAware
07:43AM 38.8510 -78.5170 269° West 439 505 29,500 1,560 Climbing FlightAware
07:44AM 38.8490 -78.6160 269° West 435 501 30,500 1,260 Climbing FlightAware
07:44AM 38.8480 -78.7100 269° West 436 502 31,100 1,140 Climbing FlightAware
07:45AM 38.8470 -78.7970 269° West 436 502 31,800 1,140 Climbing FlightAware
07:45AM 38.8460 -78.8860 269° West 437 503 32,400 1,020 Climbing FlightAware
07:46AM 38.8440 -78.9750 268° West 439 505 33,000 960 Climbing FlightAware
07:47AM 38.8420 -79.0780 269° West 441 507 33,600 840 Climbing FlightAware
07:47AM 38.8410 -79.1710 269° West 442 509 34,100 840 Climbing FlightAware
07:48AM 38.8390 -79.2560 268° West 441 507 34,600 1,020 Climbing FlightAware
07:48AM 38.8370 -79.3530 269° West 436 502 35,300 1,080 Climbing FlightAware
07:49AM 38.8360 -79.4360 269° West 431 496 35,900 600 Climbing FlightAware
07:49AM 38.8340 -79.5230 268° West 432 497 36,000 60 Climbing FlightAware
07:50AM 38.8320 -79.6130 268° West 431 496 36,000  Level FlightAware
07:51AM 38.8300 -79.7030 268° West 431 496 36,000  Level FlightAware
07:51AM 38.8280 -79.7850 268° West 431 496 36,000  Level FlightAware
07:52AM 38.8260 -79.8840 269° West 432 497 36,000  Level FlightAware
07:52AM 38.8240 -79.9670 268° West 433 498 36,000  Level FlightAware
07:53AM 38.8210 -80.0580 268° West 433 498 36,000  Level FlightAware
07:53AM 38.8190 -80.1360 268° West 433 498 36,000  Level FlightAware
07:54AM 38.8170 -80.2290 268° West 434 499 36,000  Level FlightAware
07:55AM 38.8140 -80.3230 268° West 435 501 36,000  Level FlightAware
07:55AM 38.8120 -80.4060 268° West 436 502 36,000  Level FlightAware
07:56AM 38.8090 -80.4960 268° West 437 503 36,000  Level FlightAware
07:56AM 38.8070 -80.5880 268° West 438 504 36,000  Level FlightAware
07:57AM 38.8040 -80.6830 268° West 439 505 36,000  Level FlightAware
07:57AM 38.8010 -80.7680 267° West 440 506 36,000  Level FlightAware
07:58AM 38.7980 -80.8600 268° West 440 506 36,000  Level FlightAware
07:59AM 38.7950 -80.9550 268° West 440 506 36,000  Level FlightAware
07:59AM 38.7920 -81.0450 268° West 439 505 36,000  Level FlightAware
08:00AM 38.7890 -81.1360 268° West 438 504 36,000  Level FlightAware
08:00AM 38.7860 -81.2160 267° West 438 504 36,000  Level FlightAware
08:01AM 38.7820 -81.3090 267° West 437 503 36,000  Level FlightAware
08:02AM 38.7790 -81.3990 268° West 437 503 36,000  Level FlightAware
08:02AM 38.7760 -81.4950 268° West 438 504 36,000  Level FlightAware
08:03AM 38.7720 -81.5800 267° West 438 504 36,000  Level FlightAware
08:03AM 38.7680 -81.6790 267° West 440 506 36,000  Level FlightAware
08:04AM 38.7650 -81.7610 267° West 442 509 36,000  Level FlightAware
08:04AM 38.7620 -81.8490 268° West 444 511 36,000  Level FlightAware
08:05AM 38.7570 -81.9540 267° West 447 514 36,000  Level FlightAware
08:06AM 38.7530 -82.0440 267° West 449 517 36,000  Level FlightAware
08:06AM 38.7500 -82.1330 268° West 450 518 36,000  Level FlightAware
08:07AM 38.7470 -82.2290 268° West 452 520 36,000  Level FlightAware
08:07AM 38.7430 -82.3200 267° West 453 521 36,000  Level FlightAware
08:08AM 38.7390 -82.4180 267° West 454 522 36,000  Level FlightAware
08:09AM 38.7360 -82.5030 267° West 455 524 36,000  Level FlightAware
08:09AM 38.7320 -82.6000 267° West 454 522 36,000  Level FlightAware
08:10AM 38.7280 -82.6860 267° West 454 522 36,000  Level FlightAware
08:10AM 38.7240 -82.7850 267° West 453 521 36,000  Level FlightAware
08:11AM 38.7210 -82.8610 267° West 453 521 36,000  Level FlightAware
08:11AM 38.7160 -82.9680 267° West 452 520 36,000  Level FlightAware
08:12AM 38.7120 -83.0730 267° West 451 519 36,000  Level FlightAware
08:13AM 38.7070 -83.1700 266° West 451 519 36,000  Level FlightAware
08:13AM 38.7030 -83.2610 267° West 451 519 36,000  Level FlightAware
08:14AM 38.6990 -83.3570 267° West 451 519 36,000  Level FlightAware
08:14AM 38.6950 -83.4410 267° West 450 518 36,000  Level FlightAware
08:15AM 38.6900 -83.5310 266° West 450 518 36,000  Level FlightAware
08:16AM 38.6850 -83.6320 266° West 450 518 36,000  Level FlightAware
08:16AM 38.6810 -83.7160 267° West 449 517 36,000  Level FlightAware
08:17AM 38.6760 -83.8130 266° West 448 516 36,000  Level FlightAware
08:17AM 38.6710 -83.9100 266° West 449 517 36,000  Level FlightAware
08:18AM 38.6660 -84.0030 266° West 448 516 36,000  Level FlightAware
08:18AM 38.6620 -84.0890 267° West 447 514 36,000  Level FlightAware
08:19AM 38.6570 -84.1840 266° West 447 514 36,000  Level FlightAware
08:20AM 38.6510 -84.2780 265° West 445 512 36,000  Level FlightAware
08:20AM 38.6530 -84.3700 272° West 441 507 36,000  Level FlightAware
08:21AM 38.6580 -84.4580 274° West 441 507 36,000  Level FlightAware
08:21AM 38.6630 -84.5410 274° West 441 507 36,000  Level FlightAware
08:22AM 38.6690 -84.6360 275° West 440 506 36,000  Level FlightAware
08:23AM 38.6740 -84.7280 274° West 440 506 36,000  Level FlightAware
08:23AM 38.6800 -84.8270 274° West 440 506 36,000  Level FlightAware
08:24AM 38.6850 -84.9200 274° West 440 506 36,000  Level FlightAware
08:24AM 38.6890 -85.0010 274° West 441 507 36,000  Level FlightAware
08:25AM 38.6940 -85.0910 274° West 441 507 36,000  Level FlightAware
08:25AM 38.6990 -85.1800 274° West 441 507 36,000  Level FlightAware
08:26AM 38.7040 -85.2650 274° West 441 507 36,000  Level FlightAware
08:27AM 38.7090 -85.3670 274° West 440 506 36,000  Level FlightAware
08:27AM 38.7140 -85.4590 274° West 440 506 36,000  Level FlightAware
08:28AM 38.7180 -85.5440 273° West 440 506 36,000  Level FlightAware
08:28AM 38.7230 -85.6410 274° West 440 506 36,000  Level FlightAware
08:29AM 38.7270 -85.7360 273° West 439 505 36,000  Level FlightAware
08:30AM 38.7310 -85.8180 274° West 440 506 36,000  Level FlightAware
08:30AM 38.7360 -85.9110 274° West 440 506 36,000  Level FlightAware
08:31AM 38.7400 -86.0040 273° West 440 506 36,000  Level FlightAware
08:31AM 38.7440 -86.0910 273° West 439 505 36,000  Level FlightAware
08:32AM 38.7480 -86.1850 273° West 439 505 36,000  Level FlightAware
08:32AM 38.7520 -86.2630 274° West 439 505 36,000  Level FlightAware
08:33AM 38.7560 -86.3600 273° West 438 504 36,000  Level FlightAware
08:34AM 38.7600 -86.4450 273° West 436 502 36,000  Level FlightAware
08:34AM 38.7640 -86.5410 273° West 434 499 36,000  Level FlightAware
08:35AM 38.7680 -86.6400 273° West 432 497 36,000  Level FlightAware
08:35AM 38.7710 -86.7280 273° West 430 495 36,000  Level FlightAware
08:36AM 38.7750 -86.8190 273° West 429 494 36,000  Level FlightAware
08:37AM 38.7780 -86.8960 273° West 429 494 36,000  Level FlightAware
08:37AM 38.7810 -86.9900 272° West 429 494 36,000  Level FlightAware
08:38AM 38.7850 -87.0840 273° West 431 496 36,000  Level FlightAware
08:38AM 38.7880 -87.1740 272° West 432 497 36,000  Level FlightAware
08:39AM 38.7910 -87.2660 272° West 432 497 36,000  Level FlightAware
08:39AM 38.7940 -87.3480 273° West 432 497 36,000  Level FlightAware
08:40AM 38.7970 -87.4360 273° West 432 497 36,000  Level FlightAware
08:41AM 38.8000 -87.5250 273° West 433 498 36,000  Level FlightAware
08:41AM 38.8040 -87.6230 273° West 433 498 36,000  Level FlightAware
08:42AM 38.8060 -87.7010 272° West 434 499 36,000  Level FlightAware
08:42AM 38.8090 -87.7970 272° West 434 499 36,000  Level FlightAware
08:43AM 38.8120 -87.8860 273° West 434 499 36,000  Level FlightAware
08:43AM 38.8140 -87.9650 272° West 434 499 36,000  Level FlightAware
08:44AM 38.8170 -88.0540 273° West 433 498 36,000  Level FlightAware
08:45AM 38.8190 -88.1510 272° West 433 498 36,000  Level FlightAware
08:45AM 38.8220 -88.2330 273° West 433 498 36,000  Level FlightAware
08:46AM 38.8240 -88.3380 271° West 434 499 36,000  Level FlightAware
08:46AM 38.8260 -88.4130 272° West 434 499 36,000  Level FlightAware
08:47AM 38.8290 -88.5330 272° West 434 499 36,000  Level FlightAware
08:48AM 38.8310 -88.6150 272° West 434 499 36,000  Level FlightAware
08:48AM 38.8340 -88.7150 272° West 434 499 36,000  Level FlightAware
08:49AM 38.8360 -88.8070 272° West 435 501 36,000  Level FlightAware
08:49AM 38.8370 -88.8900 271° West 435 501 36,000  Level FlightAware
08:50AM 38.8400 -89.0010 272° West 436 502 36,000  Level FlightAware
08:51AM 38.8420 -89.0980 272° West 436 502 36,000  Level FlightAware
08:51AM 38.8440 -89.1830 272° West 437 503 36,000  Level FlightAware
08:52AM 38.8450 -89.2700 271° West 437 503 36,000  Level FlightAware
08:53AM 38.8470 -89.3590 272° West 437 503 36,000  Level FlightAware
08:53AM 38.8480 -89.4570 271° West 437 503 36,000  Level FlightAware
08:54AM 38.8490 -89.5370 271° West 437 503 36,000  Level FlightAware
08:54AM 38.8510 -89.6320 272° West 436 502 36,000  Level FlightAware
08:55AM 38.8520 -89.7230 271° West 436 502 36,000  Level FlightAware
08:55AM 38.8530 -89.8010 271° West 436 502 36,000  Level FlightAware
08:56AM 38.8550 -89.8940 272° West 435 501 36,000  Level FlightAware
08:57AM 38.8560 -89.9820 271° West 434 499 36,000  Level FlightAware
08:57AM 38.8570 -90.0890 271° West 433 498 36,000  Level FlightAware
08:58AM 38.8580 -90.1930 271° West 433 498 36,000  Level FlightAware
08:58AM 38.8590 -90.2730 271° West 433 498 36,000  Level FlightAware
08:59AM 38.8600 -90.3640 271° West 432 497 36,000  Level FlightAware
09:00AM 38.8600 -90.4450 270° West 432 497 36,000  Level FlightAware
09:00AM 38.8530 -90.5380 265° West 432 497 36,000  Level FlightAware
09:01AM 38.8400 -90.6420 261° West 431 496 36,000  Level FlightAware
09:01AM 38.8300 -90.7160 260° West 430 495 36,000  Level FlightAware
09:02AM 38.8180 -90.8110 261° West 431 496 36,000  Level FlightAware
09:03AM 38.8060 -90.8990 260° West 430 495 36,000  Level FlightAware
09:03AM 38.7940 -90.9890 260° West 431 496 36,000  Level FlightAware
09:04AM 38.7840 -91.0660 261° West 434 499 36,000  Level FlightAware
09:04AM 38.7710 -91.1660 261° West 435 501 36,000  Level FlightAware
09:05AM 38.7590 -91.2580 261° West 436 502 36,000  Level FlightAware
09:05AM 38.7470 -91.3400 259° West 438 504 36,000  Level FlightAware
09:06AM 38.7340 -91.4360 260° West 440 506 36,000  Level FlightAware
09:07AM 38.7230 -91.5190 260° West 441 507 36,000  Level FlightAware
09:07AM 38.7100 -91.6140 260° West 442 509 36,000  Level FlightAware
09:08AM 38.6970 -91.7090 260° West 442 509 36,000  Level FlightAware
09:08AM 38.6850 -91.7940 260° West 443 510 36,000  Level FlightAware
09:09AM 38.6720 -91.8860 260° West 443 510 36,000  Level FlightAware
09:10AM 38.6600 -91.9640 259° West 443 510 36,000  Level FlightAware
09:10AM 38.6470 -92.0530 259° West 443 510 36,000  Level FlightAware
09:11AM 38.6300 -92.1700 259° West 443 510 36,000  Level FlightAware
09:12AM 38.6150 -92.2780 260° West 444 511 36,000  Level FlightAware
09:12AM 38.6030 -92.3610 260° West 444 511 36,000  Level FlightAware
09:13AM 38.5890 -92.4600 260° West 444 511 36,000  Level FlightAware
09:13AM 38.5750 -92.5520 259° West 445 512 36,000  Level FlightAware
09:14AM 38.5620 -92.6400 259° West 444 511 36,000  Level FlightAware
09:14AM 38.5490 -92.7260 259° West 443 510 36,000  Level FlightAware
09:15AM 38.5350 -92.8210 259° West 440 506 36,000  Level FlightAware
09:16AM 38.5240 -92.8930 259° West 439 505 36,000  Level FlightAware
09:16AM 38.5090 -92.9910 259° West 437 503 36,000  Level FlightAware
09:17AM 38.4950 -93.0840 259° West 436 502 36,000  Level FlightAware
09:17AM 38.4830 -93.1650 259° West 436 502 36,000  Level FlightAware
09:18AM 38.4690 -93.2570 259° West 434 499 36,000  Level FlightAware
09:19AM 38.4540 -93.3490 258° West 433 498 36,000  Level FlightAware
09:19AM 38.4410 -93.4350 259° West 432 497 36,000  Level FlightAware
09:20AM 38.4290 -93.5140 259° West 431 496 36,000  Level FlightAware
09:20AM 38.4160 -93.5980 259° West 430 495 36,000  Level FlightAware
09:20AM 38.4120 -93.6200 257° West 430 495 36,000  Level FlightAware
09:26AM 38.2760 -94.4660 259° West 429 494 36,000  Level FlightAware
09:26AM 38.2750 -94.4760 263° West 429 494 36,000  Level FlightAware
09:26AM 38.2730 -94.4900 260° West 429 494 36,000  Level FlightAware
09:26AM 38.2710 -94.5150 264° West 429 494 36,000  Level FlightAware
09:26AM 38.2710 -94.5230 270° West 429 494 36,000  Level FlightAware
09:27AM 38.2700 -94.5570 268° West 430 495 36,000  Level FlightAware
09:27AM 38.2700 -94.5640 270° West 430 495 36,000  Level FlightAware
09:27AM 38.2690 -94.5910 267° West 430 495 36,000  Level FlightAware
09:27AM 38.2690 -94.6010 270° West 430 495 36,000  Level FlightAware
09:27AM 38.2680 -94.6230 267° West 430 495 36,000  Level FlightAware
09:27AM 38.2670 -94.6420 266° West 430 495 36,000  Level FlightAware
09:27AM 38.2670 -94.6610 270° West 431 496 36,000  Level FlightAware
09:27AM 38.2660 -94.6730 264° West 431 496 36,000  Level FlightAware
09:28AM 38.2660 -94.6930 270° West 431 496 36,000  Level FlightAware
09:28AM 38.2660 -94.7040 270° West 431 496 36,000  Level FlightAware
09:28AM 38.2650 -94.7190 265° West 431 496 36,000  Level FlightAware
09:28AM 38.2640 -94.7410 267° West 432 497 36,000  Level FlightAware
09:28AM 38.2640 -94.7630 270° West 432 497 36,000  Level FlightAware
09:28AM 38.2630 -94.7730 263° West 432 497 36,000  Level FlightAware
09:28AM 38.2630 -94.7830 270° West 432 497 36,000  Level FlightAware
09:28AM 38.2620 -94.8140 268° West 432 497 36,000  Level FlightAware
09:28AM 38.2610 -94.8310 266° West 433 498 36,000  Level FlightAware
09:29AM 38.2610 -94.8550 270° West 433 498 36,000  Level FlightAware
09:29AM 38.2600 -94.8650 263° West 434 499 36,000 420 Level FlightAware
09:29AM 38.2590 -94.8870 267° West 436 502 36,100 420 Climbing FlightAware
09:29AM 38.2590 -94.9000 270° West 436 502 36,100 1,080 Level FlightAware
09:29AM 38.2580 -94.9170 266° West 435 501 36,300 1,080 Climbing FlightAware
09:29AM 38.2580 -94.9430 270° West 434 499 36,400 1,020 Climbing FlightAware
09:29AM 38.2570 -94.9620 266° West 433 498 36,600 960 Climbing FlightAware
09:29AM 38.2570 -94.9710 270° West 433 498 36,600 960 Level FlightAware
09:30AM 38.2560 -94.9920 267° West 432 497 36,800 1,080 Climbing FlightAware
09:30AM 38.2550 -95.0110 266° West 431 496 36,900 960 Climbing FlightAware
09:30AM 38.2540 -95.0370 267° West 430 495 37,100 840 Climbing FlightAware
09:30AM 38.2540 -95.0480 270° West 430 495 37,100 1,200 Level FlightAware
09:30AM 38.2530 -95.0650 266° West 429 494 37,300 1,080 Climbing FlightAware
09:30AM 38.2530 -95.0880 270° West 428 493 37,400 660 Climbing FlightAware
09:30AM 38.2520 -95.1090 267° West 427 491 37,500 1,200 Climbing FlightAware
09:30AM 38.2520 -95.1120 270° West 427 491 37,600 1,200 Climbing FlightAware
09:30AM 38.2510 -95.1310 266° West 426 490 37,700 660 Climbing FlightAware
09:31AM 38.2500 -95.1510 266° West 425 489 37,800 840 Climbing FlightAware
09:31AM 38.2500 -95.1660 270° West 425 489 37,900 900 Climbing FlightAware
09:31AM 38.2490 -95.1880 267° West 424 488 38,000 360 Climbing FlightAware
09:31AM 38.2480 -95.2050 266° West 425 489 38,000  Level FlightAware
09:32AM 38.2450 -95.2970 268° West 425 489 38,000  Level FlightAware
09:32AM 38.2420 -95.3780 267° West 425 489 38,000  Level FlightAware
09:33AM 38.2390 -95.4640 267° West 424 488 38,000  Level FlightAware
09:33AM 38.2350 -95.5540 267° West 423 487 38,000  Level FlightAware
09:34AM 38.2320 -95.6490 268° West 423 487 38,000  Level FlightAware
09:34AM 38.2280 -95.7340 267° West 423 487 38,000  Level FlightAware
09:35AM 38.2250 -95.8130 267° West 423 487 38,000  Level FlightAware
09:36AM 38.2210 -95.9020 267° West 423 487 38,000  Level FlightAware
09:36AM 38.2180 -95.9830 267° West 423 487 38,000  Level FlightAware
09:37AM 38.2140 -96.0660 267° West 423 487 38,000  Level FlightAware
09:37AM 38.2100 -96.1640 267° West 423 487 38,000  Level FlightAware
09:38AM 38.2060 -96.2600 267° West 424 488 38,000  Level FlightAware
09:39AM 38.2020 -96.3390 266° West 424 488 38,000  Level FlightAware
09:39AM 38.1980 -96.4280 267° West 424 488 38,000  Level FlightAware
09:40AM 38.1940 -96.5080 266° West 424 488 38,000  Level FlightAware
09:40AM 38.1900 -96.6010 267° West 424 488 38,000  Level FlightAware
09:41AM 38.1850 -96.6910 266° West 425 489 38,000  Level FlightAware
09:41AM 38.1820 -96.7700 267° West 426 490 38,000  Level FlightAware
09:42AM 38.1770 -96.8670 266° West 426 490 38,000  Level FlightAware
09:43AM 38.1730 -96.9470 266° West 426 490 38,000  Level FlightAware
09:43AM 38.1680 -97.0360 266° West 427 491 38,000  Level FlightAware
09:44AM 38.1640 -97.1260 267° West 427 491 38,000  Level FlightAware
09:44AM 38.1590 -97.2120 266° West 429 494 38,000  Level FlightAware
09:45AM 38.1540 -97.2980 266° West 429 494 38,000  Level FlightAware
09:46AM 38.1490 -97.3880 266° West 431 496 38,000  Level FlightAware
09:46AM 38.1450 -97.4790 267° West 432 497 38,000  Level FlightAware
09:47AM 38.1400 -97.5660 266° West 433 498 38,000  Level FlightAware
09:47AM 38.1350 -97.6520 266° West 433 498 38,000  Level FlightAware
09:48AM 38.1290 -97.7470 265° West 434 499 38,000  Level FlightAware
09:48AM 38.1240 -97.8320 266° West 434 499 38,000  Level FlightAware
09:49AM 38.1190 -97.9240 266° West 434 499 38,000  Level FlightAware
09:50AM 38.1140 -98.0040 265° West 433 498 38,000  Level FlightAware
09:50AM 38.1090 -98.0990 266° West 433 498 38,000  Level FlightAware
09:51AM 38.1030 -98.1810 265° West 433 498 38,000  Level FlightAware
09:51AM 38.0980 -98.2660 266° West 433 498 38,000  Level FlightAware
09:52AM 38.0930 -98.3540 266° West 433 498 38,000  Level FlightAware
09:53AM 38.0870 -98.4500 265° West 432 497 38,000  Level FlightAware
09:53AM 38.0800 -98.5450 265° West 431 496 38,000  Level FlightAware
09:54AM 38.0750 -98.6220 265° West 431 496 38,000  Level FlightAware
09:54AM 38.0690 -98.7180 265° West 432 497 38,000  Level FlightAware
09:55AM 38.0630 -98.8090 265° West 432 497 38,000  Level FlightAware
09:55AM 38.0570 -98.8930 265° West 433 498 38,000  Level FlightAware
09:56AM 38.0520 -98.9790 266° West 435 501 38,000  Level FlightAware
09:57AM 38.0460 -99.0640 265° West 437 503 38,000  Level FlightAware
09:57AM 38.0400 -99.1520 265° West 438 504 38,000  Level FlightAware
09:58AM 38.0350 -99.2260 265° West 439 505 38,000  Level FlightAware
09:58AM 38.0290 -99.3050 265° West 439 505 38,000  Level FlightAware
09:59AM 38.0240 -99.3860 266° West 439 505 38,000  Level FlightAware
10:00AM 38.0180 -99.4640 264° West 439 505 38,000  Level FlightAware
10:00AM 38.0130 -99.5380 265° West 439 505 38,000  Level FlightAware
10:01AM 38.0070 -99.6230 265° West 439 505 38,000  Level FlightAware
10:01AM 38.0010 -99.7060 265° West 439 505 38,000  Level FlightAware
10:02AM 37.9960 -99.7850 265° West 439 505 38,000  Level FlightAware
10:03AM 37.9910 -99.8590 265° West 439 505 38,000  Level FlightAware
10:03AM 37.9850 -99.9400 265° West 439 505 38,000  Level FlightAware
10:04AM 37.9800 -100.0180 265° West 439 505 38,000  Level FlightAware
10:04AM 37.9750 -100.0950 265° West 439 505 38,000  Level FlightAware
10:05AM 37.9700 -100.1690 265° West 439 505 38,000  Level FlightAware
10:06AM 37.9640 -100.2500 265° West 439 505 38,000  Level FlightAware
10:06AM 37.9580 -100.3300 265° West 439 505 38,000  Level FlightAware
10:07AM 37.9530 -100.4090 265° West 439 505 38,000  Level FlightAware
10:08AM 37.9131 -100.8133 265° West 440 506 38,000  Level Kansas City Center
10:09AM 37.8961 -100.9844 263° West 442 509 38,000  Level Kansas City Center
10:10AM 37.8800 -101.1561 263° West 444 511 38,000  Level Kansas City Center
10:11AM 37.8658 -101.3036 263° West 444 511 38,000  Level Kansas City Center
10:12AM 37.8494 -101.4758 263° West 444 511 38,000  Level Kansas City Center
10:13AM 37.8344 -101.6253 263° West 447 514 38,000  Level Kansas City Center
10:14AM 37.8175 -101.8017 263° West 452 520 38,000  Level Kansas City Center
10:15AM 37.8014 -101.9531 262° West 454 522 38,000  Level Kansas City Center
10:16AM 37.7869 -102.1064 263° West 458 527 38,000  Level Kansas City Center
10:17AM 37.7686 -102.2839 263° West 458 527 38,000  Level Kansas City Center
10:18AM 37.7519 -102.4358 262° West 457 526 38,000  Level Kansas City Center
10:19AM 37.7336 -102.6150 263° West 461 531 38,000  Level Kansas City Center
10:21AM 37.7142 -102.8031 263° West 459 528 38,000  Level Denver Center
10:22AM 37.6972 -102.9553 262° West 458 527 38,000  Level Denver Center
10:23AM 37.6783 -103.1322 262° West 457 526 38,000  Level Denver Center
10:24AM 37.6611 -103.2853 262° West 459 528 38,000  Level Denver Center
10:25AM 37.6419 -103.4633 262° West 459 528 38,000  Level Denver Center
10:26AM 37.6242 -103.6164 262° West 461 531 38,000  Level Denver Center
10:27AM 37.6036 -103.7956 262° West 464 534 38,000  Level Denver Center
10:33AM 37.4890 -104.7400 262° West 468 539 38,000  Level FlightAware
10:33AM 37.4780 -104.8250 261° West 468 539 38,000  Level FlightAware
10:34AM 37.4670 -104.9120 261° West 468 539 38,000  Level FlightAware
10:34AM 37.4560 -104.9970 261° West 468 539 38,000  Level FlightAware
10:35AM 37.4460 -105.0790 261° West 468 539 38,000  Level FlightAware
10:36AM 37.4350 -105.1640 261° West 468 539 38,000  Level FlightAware
10:36AM 37.4250 -105.2460 261° West 468 539 38,000  Level FlightAware
10:37AM 37.4140 -105.3330 261° West 468 539 38,000  Level FlightAware
10:38AM 37.4030 -105.4220 261° West 468 539 38,000  Level FlightAware
10:38AM 37.3920 -105.5090 261° West 468 539 38,000  Level FlightAware
10:39AM 37.3820 -105.5870 261° West 468 539 38,000  Level FlightAware
10:40AM 37.3222 -105.9531 261° West 462 532 38,000  Level Denver Center
10:41AM 37.2944 -106.1053 257° West 467 537 38,000  Level Denver Center
10:42AM 37.2600 -106.2814 256° West 467 537 38,000  Level Denver Center
10:43AM 37.2325 -106.4344 257° West 470 541 38,000  Level Denver Center
10:44AM 37.1978 -106.6122 256° West 470 541 38,000  Level Denver Center
10:45AM 37.1678 -106.7639 256° West 469 540 38,000  Level Denver Center
10:46AM 37.1383 -106.9167 256° West 471 542 38,000  Level Denver Center
10:47AM 37.1036 -107.0928 256° West 468 539 38,000  Level Denver Center
10:48AM 37.0733 -107.2425 256° West 464 534 38,000  Level Denver Center
10:50AM 37.0392 -107.4169 256° West 460 529 38,000  Level Denver Center
10:51AM 37.0092 -107.5650 256° West 460 529 38,000  Level Denver Center
10:52AM 36.9739 -107.7372 256° West 458 527 38,000  Level Denver Center
10:53AM 36.9442 -107.8836 256° West 457 526 38,000  Level Denver Center
10:54AM 36.9083 -108.0547 255° West 457 526 38,000  Level Denver Center
10:55AM 36.8783 -108.1994 256° West 454 522 38,000  Level Denver Center
10:56AM 36.8425 -108.3725 256° West 458 527 38,000  Level Denver Center
10:57AM 36.8114 -108.5186 255° West 458 527 38,000  Level Denver Center
10:58AM 36.7697 -108.7122 255° West 456 525 38,000  Level Denver Center
10:59AM 36.7339 -108.8825 255° West 457 526 38,000  Level Denver Center
11:00AM 36.7019 -109.0278 255° West 456 525 38,000  Level Denver Center
11:01AM 36.6658 -109.1964 255° West 455 524 38,000  Level Denver Center
11:02AM 36.6342 -109.3397 255° West 452 520 38,000  Level Denver Center
11:03AM 36.5975 -109.5064 255° West 450 518 38,000  Level Denver Center
11:04AM 36.5650 -109.6517 254° West 454 522 38,000  Level Denver Center
11:05AM 36.5267 -109.8192 254° West 455 524 38,000  Level Denver Center
11:06AM 36.4958 -109.9628 255° West 451 519 38,000 -120 Level Denver Center
11:11AM 36.3160 -110.7430 255° West 447 514 37,400 -120 Descending FlightAware
11:12AM 36.3140 -110.7550 258° West 447 514 37,400 -540 Level FlightAware
11:12AM 36.3120 -110.7650 256° West 448 516 37,300 -900 Descending FlightAware
11:12AM 36.3030 -110.8030 254° West 450 518 37,100 -1,140 Descending FlightAware
11:12AM 36.3000 -110.8140 251° West 450 518 37,000 -1,020 Descending FlightAware
11:12AM 36.2950 -110.8340 253° West 451 519 36,900 -1,020 Descending FlightAware
11:12AM 36.2860 -110.8720 254° West 454 522 36,600 -900 Descending FlightAware
11:12AM 36.2840 -110.8810 255° West 454 522 36,600 -1,020 Level FlightAware
11:13AM 36.2790 -110.9030 254° West 456 525 36,400 -840 Descending FlightAware
11:13AM 36.2780 -110.9090 258° West 456 525 36,400 -540 Level FlightAware
11:13AM 36.2730 -110.9300 254° West 457 526 36,300 -960 Descending FlightAware
11:13AM 36.2680 -110.9480 251° West 458 527 36,200 -1,140 Descending FlightAware
11:13AM 36.2630 -110.9720 256° West 459 528 36,000 -1,500 Descending FlightAware
11:13AM 36.2600 -110.9820 250° West 459 528 35,900 -900 Descending FlightAware
11:13AM 36.2540 -111.0080 254° West 459 528 35,800 -900 Descending FlightAware
11:13AM 36.2520 -111.0180 256° West 459 528 35,700 -1,020 Descending FlightAware
11:13AM 36.2470 -111.0390 254° West 460 529 35,600 -1,020 Descending FlightAware
11:13AM 36.2450 -111.0490 256° West 460 529 35,500 -1,200 Descending FlightAware
11:14AM 36.2400 -111.0680 252° West 460 529 35,300 -1,320 Descending FlightAware
11:14AM 36.2340 -111.0940 254° West 459 528 35,100 -1,620 Descending FlightAware
11:14AM 36.2310 -111.1080 255° West 459 528 34,900 -1,680 Descending FlightAware
11:14AM 36.2270 -111.1240 253° West 457 526 34,800 -1,620 Descending FlightAware
11:14AM 36.2210 -111.1500 254° West 454 522 34,500 -1,740 Descending FlightAware
11:14AM 36.2190 -111.1580 253° West 453 521 34,400 -1,680 Descending FlightAware
11:14AM 36.2140 -111.1780 253° West 450 518 34,200 -1,500 Descending FlightAware
11:14AM 36.2110 -111.1890 251° West 450 518 34,100 -1,380 Descending FlightAware
11:15AM 36.2040 -111.2210 255° West 447 514 33,800 -1,680 Descending FlightAware
11:15AM 36.2010 -111.2320 251° West 446 513 33,600 -2,040 Descending FlightAware
11:15AM 36.1970 -111.2520 256° West 445 512 33,400 -1,500 Descending FlightAware
11:15AM 36.1920 -111.2730 254° West 443 510 33,200 -1,200 Descending FlightAware
11:15AM 36.1900 -111.2780 244° Southwest 443 510 33,200 -1,200 Level FlightAware
11:15AM 36.1870 -111.2910 254° West 442 509 33,000 -1,500 Descending FlightAware
11:15AM 36.1810 -111.3150 253° West 439 505 32,800 -1,920 Descending FlightAware
11:15AM 36.1760 -111.3360 254° West 436 502 32,500 -2,040 Descending FlightAware
11:15AM 36.1740 -111.3450 255° West 434 499 32,400 -960 Descending FlightAware
11:16AM 36.1710 -111.3600 256° West 432 497 32,300 -1,380 Descending FlightAware
11:16AM 36.1640 -111.3880 253° West 430 495 32,000 -1,800 Descending FlightAware
11:16AM 36.1600 -111.4060 255° West 430 495 31,800 -1,440 Descending FlightAware
11:16AM 36.1570 -111.4160 250° West 430 495 31,700 -1,680 Descending FlightAware
11:16AM 36.1540 -111.4300 255° West 429 494 31,500 -1,920 Descending FlightAware
11:16AM 36.1480 -111.4560 254° West 427 491 31,200 -1,740 Descending FlightAware
11:16AM 36.1460 -111.4650 255° West 426 490 31,100 -1,500 Descending FlightAware
11:16AM 36.1410 -111.4840 252° West 425 489 30,900 -1,380 Descending FlightAware
11:17AM 36.1240 -111.5560 254° West 420 483 30,200 -780 Descending FlightAware
11:18AM 36.1010 -111.6500 253° West 424 488 30,000 -180 Descending FlightAware
11:18AM 36.0810 -111.7310 253° West 416 479 30,000  Level FlightAware
11:19AM 36.0630 -111.8070 254° West 401 461 30,000  Level FlightAware
11:19AM 36.0450 -111.8770 252° West 399 459 30,000  Level FlightAware
11:20AM 36.0260 -111.9570 254° West 397 457 30,000  Level FlightAware
11:21AM 36.0060 -112.0390 253° West 397 457 30,000  Level FlightAware
11:21AM 35.9910 -112.1010 253° West 397 457 30,000  Level FlightAware
11:22AM 35.9720 -112.1780 253° West 397 457 30,000  Level FlightAware
11:22AM 35.9520 -112.2590 253° West 397 457 30,000  Level FlightAware
11:23AM 35.9320 -112.3380 253° West 396 456 30,000  Level FlightAware
11:23AM 35.9140 -112.4100 253° West 395 455 30,000  Level FlightAware
11:24AM 35.8940 -112.4900 253° West 410 472 30,000  Level FlightAware
11:25AM 35.8760 -112.5630 253° West 424 488 30,000  Level FlightAware
11:25AM 35.8550 -112.6460 253° West 426 490 30,000  Level FlightAware
11:26AM 35.8330 -112.7330 253° West 426 490 30,000  Level FlightAware
11:26AM 35.8200 -112.8170 259° West 426 490 30,000  Level FlightAware
11:27AM 35.8100 -112.9020 262° West 425 489 30,000  Level FlightAware
11:28AM 35.8010 -112.9760 261° West 443 510 30,000  Level FlightAware
11:28AM 35.7900 -113.0630 261° West 461 531 30,000 -300 Level FlightAware
11:29AM 35.7800 -113.1430 261° West 468 539 29,700 -1,500 Descending FlightAware
11:29AM 35.7700 -113.2270 262° West 463 533 28,400 -2,460 Descending FlightAware
11:30AM 35.7570 -113.3240 261° West 455 524 26,800 -2,640 Descending FlightAware
11:30AM 35.7450 -113.4150 261° West 450 518 25,300 -2,520 Descending FlightAware
11:31AM 35.7350 -113.5000 262° West 444 511 24,000 -2,400 Descending FlightAware
11:32AM 35.7230 -113.5900 261° West 438 504 22,500 -2,520 Descending FlightAware
11:32AM 35.7130 -113.6690 261° West 430 495 21,100 -2,520 Descending FlightAware
11:33AM 35.7020 -113.7510 261° West 423 487 19,700 -2,400 Descending FlightAware
11:33AM 35.6920 -113.8270 261° West 417 480 18,400 -2,520 Descending FlightAware
11:34AM 35.6820 -113.9200 262° West 410 472 16,700 -2,580 Descending FlightAware
11:34AM 35.6880 -113.9930 276° West 404 465 15,400 -2,460 Descending FlightAware
11:35AM 35.6990 -114.0710 280° West 397 457 14,000 -2,460 Descending FlightAware
11:36AM 35.7100 -114.1530 279° West 387 445 12,500 -1,740 Descending FlightAware
11:36AM 35.7210 -114.2290 280° West 360 414 11,900 -540 Descending FlightAware
11:37AM 35.7300 -114.2940 280° West 321 369 11,900 60 Level FlightAware
11:37AM 35.7390 -114.3560 280° West 311 358 12,000  Climbing FlightAware
11:37AM 35.7450 -114.3700 298° West 310 357 11,900 -240 Descending FlightAware
11:38AM 35.7660 -114.3940 317° Northwest 308 354 11,900  Level FlightAware
11:38AM 35.8170 -114.4180 339° North 308 354 11,900 -120 Level FlightAware
11:39AM 35.8590 -114.4380 339° North 302 348 11,800 -600 Descending FlightAware
11:40AM 35.9020 -114.4580 339° North 288 331 11,300 -960 Descending FlightAware
11:40AM 35.9460 -114.4780 340° North 272 313 10,700 -960 Descending FlightAware
11:41AM 35.9840 -114.4970 338° Northwest 257 296 10,200 -840 Descending FlightAware
11:41AM 35.9930 -114.5060 321° Northwest 256 295 10,100 -720 Descending FlightAware
11:41AM 35.9980 -114.5140 308° West 255 293 10,000 -1,320 Descending FlightAware
11:41AM 36.0040 -114.5300 295° West 255 293 9,700 -1,260 Descending FlightAware
11:42AM 36.0140 -114.5600 292° West 254 292 9,300 -1,020 Descending FlightAware
11:42AM 36.0180 -114.5710 294° West 253 291 9,200 -960 Descending FlightAware
11:42AM 36.0290 -114.6010 294° West 252 290 8,800 -1,140 Descending FlightAware
11:43AM 36.0400 -114.6330 293° West 248 285 8,300 -1,140 Descending FlightAware
11:43AM 36.0460 -114.6510 292° West 247 284 8,100 -780 Descending FlightAware
11:43AM 36.0550 -114.6760 294° West 245 282 7,900 -300 Descending FlightAware
11:43AM 36.0650 -114.7040 294° West 245 282 7,900  Level FlightAware
11:44AM 36.0720 -114.7340 286° West 246 283 7,900 -540 Level FlightAware
11:44AM 36.0730 -114.7660 272° West 250 288 7,500 -1,440 Descending FlightAware
11:44AM 36.0730 -114.7910 270° West 252 290 7,000 -1,440 Descending FlightAware
11:45AM 36.0730 -114.8090 270° West 250 288 6,800 -1,200 Descending FlightAware
11:45AM 36.0730 -114.8420 270° West 244 281 6,300 -1,200 Descending FlightAware
11:45AM 36.0740 -114.8710 272° West 239 275 5,900 -1,200 Descending FlightAware
11:46AM 36.0730 -114.8910 266° West 231 266 5,600 -1,260 Descending FlightAware
11:46AM 36.0740 -114.9130 273° West 219 252 5,200 -1,200 Descending FlightAware
11:46AM 36.0740 -114.9340 270° West 207 238 4,900 -1,200 Descending FlightAware
11:47AM 36.0740 -114.9650 270° West 191 220 4,400 -1,080 Descending FlightAware
11:47AM 36.0740 -114.9910 270° West 186 214 4,000 -960 Descending FlightAware
11:47AM 36.0740 -115.0130 270° West 176 203 3,700 -780 Descending FlightAware
11:48AM 36.0740 -115.0290 270° West 167 192 3,500 -900 Descending FlightAware
11:48AM 36.0740 -115.0520 270° West 162 186 3,100 -1,020 Descending FlightAware
11:48AM 36.0740 -115.0690 270° West 159 183 2,800 -900 Descending FlightAware
11:49AM 36.0740 -115.1030 270° West 158 182 2,300 -660 Descending FlightAware
11:49AM 36.0740 -115.1150 270° West 155 178 2,200 -360 Descending FlightAware
11:50AM 36.0740 -115.1360 270° West 130 150 -6,600 Descending FlightAware